Tonkawa, OK

7:21 AM CST on February 26, 2017 (GMT -0600)
Blackwell

Weather History for KBKN - February, 2013

Change the Weather History Date:

Sunday, February 3, 2013

  Actual Average (KPNC) Record (KPNC)
Temperature  
Mean Temperature 42 °F -  
Max Temperature 59 °F 46 °F 74 °F (1962)
Min Temperature 26 °F 26 °F -11 °F (2011)
Degree Days  
Heating Degree Days 22    
Moisture  
Dew Point 25 °F    
Average Humidity 52    
Maximum Humidity 80    
Minimum Humidity 25    
Precipitation  
Precipitation 0.00 in - - ()
Sea Level Pressure  
Sea Level Pressure 30.14 in    
Wind  
Wind Speed 10 mph (South)    
Max Wind Speed 18 mph    
Max Gust Speed 24 mph    
Visibility 10 miles    
Events      
Averages and records for this station are not official NWS values.
T = Trace of Precipitation, MM = Missing Value Source: NWS Daily Summary

Daily Weather History Graph

Daily Weather History Graph

Search for Another Location

Airport or City:

Trip Planner

Search our weather history database for the weather conditions in past years. The results will help you decide how hot, cold, wet, or windy it might be!

Date:

Astronomy

Feb. 03, 2013 Rise Set
Actual Time 7:29 AM CST 5:57 PM CST
Civil Twilight 7:02 AM CST 6:24 PM CST
Nautical Twilight 6:31 AM CST 6:55 PM CST
Astronomical Twilight 6:01 AM CST 7:25 PM CST
Moon 12:58 AM CST (2/3) 11:36 AM CST (2/3)
Length of Visible Light 11h 22m
Length of Day
10h 27m
Waning Gibbous, 48% of the Moon is Illuminated
Feb 3
Waning Gibbous
Feb 10
New
Feb 17
First Quarter
Feb 25
Full
Mar 4
Last Quarter

Hourly Weather History & Observations

Time (CST) Temp. Windchill Dew Point Humidity Pressure Visibility Wind Dir Wind Speed Gust Speed Precip Events Conditions
12:15 AM 35.6 °F 27.5 °F 23.0 °F 60% 30.25 in 10.0 mi WNW 11.5 mph - N/A   Clear
12:35 AM 35.6 °F 27.5 °F 23.0 °F 60% 30.26 in 10.0 mi West 11.5 mph - N/A   Clear
12:55 AM 35.6 °F 28.0 °F 23.0 °F 60% 30.26 in 10.0 mi West 10.4 mph - N/A   Clear
1:15 AM 33.8 °F 24.8 °F 23.0 °F 65% 30.26 in 10.0 mi West 12.7 mph - N/A   Clear
1:35 AM 33.8 °F 24.8 °F 23.0 °F 65% 30.27 in 10.0 mi West 12.7 mph - N/A   Clear
1:55 AM 32.0 °F 24.2 °F 23.0 °F 69% 30.26 in 10.0 mi WNW 9.2 mph - N/A   Clear
2:15 AM 33.8 °F 25.3 °F 23.0 °F 65% 30.26 in 10.0 mi West 11.5 mph - N/A   Clear
2:35 AM 32.0 °F 23.6 °F 23.0 °F 69% 30.26 in 10.0 mi West 10.4 mph - N/A   Clear
2:55 AM 32.0 °F - 23.0 °F 69% 30.27 in 10.0 mi Calm Calm - N/A   Clear
3:15 AM 32.0 °F - 21.2 °F 64% 30.27 in 10.0 mi Calm Calm - N/A   Clear
3:55 AM 28.4 °F 21.2 °F 21.2 °F 74% 30.26 in 10.0 mi West 6.9 mph - N/A   Clear
4:15 AM 28.4 °F 20.4 °F 23.0 °F 80% 30.26 in 10.0 mi WNW 8.1 mph - N/A   Clear
4:35 AM 32.0 °F 24.8 °F 21.2 °F 64% 30.26 in 10.0 mi West 8.1 mph - N/A   Clear
4:55 AM 28.4 °F 20.4 °F 21.2 °F 74% 30.26 in 10.0 mi West 8.1 mph - N/A   Clear
5:15 AM 28.4 °F 21.2 °F 21.2 °F 74% 30.27 in 10.0 mi West 6.9 mph - N/A   Clear
5:35 AM 28.4 °F 22.2 °F 21.2 °F 74% 30.27 in 10.0 mi NW 5.8 mph - N/A   Clear
5:55 AM 26.6 °F - 21.2 °F 80% 30.28 in 10.0 mi Calm Calm - N/A   Clear
6:15 AM 26.6 °F - 19.4 °F 74% 30.28 in 10.0 mi Calm Calm - N/A   Clear
6:35 AM 26.6 °F - 21.2 °F 80% 30.28 in 10.0 mi Calm Calm - N/A   Clear
6:55 AM 28.4 °F 24.6 °F 19.4 °F 69% 30.29 in 10.0 mi NW 3.5 mph - N/A   Clear
7:15 AM 28.4 °F 21.2 °F 21.2 °F 74% 30.29 in 10.0 mi West 6.9 mph - N/A   Clear
7:35 AM 26.6 °F 21.2 °F 19.4 °F 74% 30.29 in 10.0 mi West 4.6 mph - N/A   Clear
7:55 AM 26.6 °F 22.6 °F 21.2 °F 80% 30.30 in 10.0 mi WSW 3.5 mph - N/A   Clear
8:15 AM 28.4 °F - 23.0 °F 80% 30.29 in 10.0 mi Calm Calm - N/A   Clear
8:35 AM 32.0 °F - 23.0 °F 69% 30.29 in 10.0 mi Calm Calm - N/A   Clear
8:55 AM 32.0 °F 28.7 °F 24.8 °F 75% 30.30 in 10.0 mi SW 3.5 mph - N/A   Clear
9:15 AM 35.6 °F 32.8 °F 26.6 °F 70% 30.30 in 10.0 mi SW 3.5 mph - N/A   Clear
9:35 AM 39.2 °F - 26.6 °F 61% 30.29 in 10.0 mi Calm Calm - N/A   Clear
9:55 AM 41.0 °F 38.0 °F 24.8 °F 53% 30.29 in 10.0 mi ESE 4.6 mph - N/A   Clear
10:15 AM 42.8 °F 38.0 °F 24.8 °F 49% 30.29 in 10.0 mi SE 8.1 mph - N/A   Clear
10:35 AM 44.6 °F 39.2 °F 24.8 °F 46% 30.28 in 10.0 mi ESE 10.4 mph - N/A   Clear
10:55 AM 44.6 °F 39.2 °F 24.8 °F 46% 30.27 in 10.0 mi ESE 10.4 mph - N/A   Clear
11:15 AM 46.4 °F 41.5 °F 24.8 °F 43% 30.26 in 10.0 mi ESE 10.4 mph - N/A   Clear
11:35 AM 48.2 °F - 26.6 °F 43% 30.25 in 10.0 mi ESE 11.5 mph - N/A   Clear
11:55 AM 48.2 °F - 24.8 °F 40% 30.23 in 10.0 mi SE 12.7 mph - N/A   Clear
12:15 PM 50.0 °F - 24.8 °F 37% 30.21 in 10.0 mi SE 12.7 mph - N/A   Clear
12:35 PM 51.8 °F - 23.0 °F 33% 30.19 in 10.0 mi ESE 12.7 mph - N/A   Clear
12:55 PM 53.6 °F - 24.8 °F 33% 30.18 in 10.0 mi SE 9.2 mph - N/A   Clear
1:15 PM 53.6 °F - 23.0 °F 30% 30.17 in 10.0 mi SE 12.7 mph 20.7 mph N/A   Clear
1:35 PM 55.4 °F - 23.0 °F 29% 30.14 in 10.0 mi SSE 17.3 mph - N/A   Clear
1:55 PM 55.4 °F - 24.8 °F 31% 30.12 in 10.0 mi SSE 12.7 mph 20.7 mph N/A   Clear
2:15 PM 57.2 °F - 23.0 °F 27% 30.10 in 10.0 mi SSE 18.4 mph 23.0 mph N/A   Clear
2:35 PM 57.2 °F - 23.0 °F 27% 30.08 in 10.0 mi SSE 18.4 mph 23.0 mph N/A   Clear
2:55 PM 57.2 °F - 23.0 °F 27% 30.07 in 10.0 mi SSE 18.4 mph - N/A   Clear
3:15 PM 59.0 °F - 23.0 °F 25% 30.06 in 10.0 mi South 17.3 mph 24.2 mph N/A   Clear
3:35 PM 57.2 °F - 24.8 °F 29% 30.06 in 10.0 mi South 17.3 mph 24.2 mph N/A   Clear
3:55 PM 59.0 °F - 24.8 °F 27% 30.05 in 10.0 mi South 18.4 mph 21.9 mph N/A   Clear
4:15 PM 59.0 °F - 24.8 °F 27% 30.04 in 10.0 mi South 17.3 mph - N/A   Clear
4:35 PM 57.2 °F - 24.8 °F 29% 30.03 in 10.0 mi South 16.1 mph - N/A   Clear
4:55 PM 55.4 °F - 24.8 °F 31% 30.03 in 10.0 mi South 12.7 mph - N/A   Clear
5:15 PM 55.4 °F - 26.6 °F 33% 30.01 in 10.0 mi SSE 12.7 mph - N/A   Clear
5:35 PM 53.6 °F - 26.6 °F 35% 30.00 in 10.0 mi SSE 12.7 mph - N/A   Clear
5:55 PM 53.6 °F - 28.4 °F 38% 29.99 in 10.0 mi SSE 10.4 mph - N/A   Clear
6:15 PM 51.8 °F - 28.4 °F 41% 29.99 in 10.0 mi SSE 11.5 mph - N/A   Clear
6:35 PM 51.8 °F - 26.6 °F 38% 29.98 in 10.0 mi SSE 12.7 mph - N/A   Clear
6:55 PM 50.0 °F - 28.4 °F 43% 29.98 in 10.0 mi SSE 12.7 mph - N/A   Clear
7:15 PM 50.0 °F - 28.4 °F 43% 29.97 in 10.0 mi SSE 13.8 mph - N/A   Clear
7:35 PM 50.0 °F - 28.4 °F 43% 29.96 in 10.0 mi SSE 12.7 mph - N/A   Clear
7:55 PM 50.0 °F - 28.4 °F 43% 29.95 in 10.0 mi SSE 15.0 mph - N/A   Clear
8:15 PM 50.0 °F - 28.4 °F 43% 29.95 in 10.0 mi SSE 13.8 mph - N/A   Clear
8:35 PM 50.0 °F - 28.4 °F 43% 29.94 in 10.0 mi SSE 12.7 mph - N/A   Clear
8:55 PM 50.0 °F - 28.4 °F 43% 29.93 in 10.0 mi SSE 13.8 mph - N/A   Clear
9:15 PM 48.2 °F - 28.4 °F 46% 29.93 in 10.0 mi SSE 11.5 mph - N/A   Clear
9:35 PM 48.2 °F - 28.4 °F 46% 29.92 in 10.0 mi SSE 11.5 mph - N/A   Clear
9:55 PM 48.2 °F - 30.2 °F 50% 29.91 in 10.0 mi SSE 11.5 mph - N/A   Mostly Cloudy
10:15 PM 48.2 °F - 30.2 °F 50% 29.91 in 10.0 mi SSE 11.5 mph - N/A   Overcast
10:35 PM 48.2 °F - 30.2 °F 50% 29.90 in 10.0 mi SSE 11.5 mph - N/A   Scattered Clouds
10:55 PM 48.2 °F - 30.2 °F 50% 29.89 in 10.0 mi South 9.2 mph - N/A   Partly Cloudy
11:15 PM 48.2 °F - 30.2 °F 50% 29.89 in 10.0 mi South 9.2 mph - N/A   Scattered Clouds
11:35 PM 48.2 °F - 32.0 °F 54% 29.88 in 10.0 mi South 8.1 mph - N/A   Mostly Cloudy
11:55 PM 48.2 °F - 32.0 °F 54% 29.87 in 10.0 mi South 10.4 mph - N/A   Overcast